This is the latest recevied weather packets stored in our database for station/object CW79215. If no packets are shown the sender has not sent any weather packets the latest 10 day(s).
| Time | Temp. | Humidity | Pressure | Rain* | Wind** | Luminosity | Snow |
|---|---|---|---|---|---|---|---|
| 1777891932 | 21.11° C | 37% | 1017.6 hPa | - | - | - | - |
| 1777891032 | 20.56° C | 36% | 1017.9 hPa | - | - | - | - |
| 1777890132 | 20.56° C | 38% | 1017.9 hPa | - | - | - | - |
| 1777889232 | 20.56° C | 36% | 1018 hPa | - | - | - | - |
| 1777888332 | 20° C | 37% | 1018 hPa | - | - | - | - |
| 1777887432 | 20° C | 41% | 1018.2 hPa | - | - | - | - |
| 1777886532 | 19.44° C | 43% | 1018.3 hPa | - | - | - | - |
| 1777885632 | 18.89° C | 44% | 1018.4 hPa | - | - | - | - |
| 1777884731 | 18.89° C | 45% | 1018.5 hPa | - | - | - | - |
| 1777883831 | 18.33° C | 45% | 1018.7 hPa | - | - | - | - |
| 1777882931 | 18.33° C | 46% | 1018.7 hPa | - | - | - | - |
| 1777882031 | 18.33° C | 45% | 1018.7 hPa | - | - | - | - |
| 1777881131 | 18.33° C | 46% | 1018.7 hPa | - | - | - | - |
| 1777880230 | 17.78° C | 48% | 1018.7 hPa | - | - | - | - |
| 1777879330 | 17.22° C | 52% | 1018.8 hPa | - | - | - | - |
| 1777878430 | 16.11° C | 54% | 1018.6 hPa | - | - | - | - |
| 1777877530 | 14.44° C | 57% | 1018.8 hPa | - | - | - | - |
| 1777876641 | 14.44° C | 58% | 1018.8 hPa | - | - | - | - |
| 1777875741 | 13.33° C | 62% | 1018.8 hPa | - | - | - | - |
| 1777874841 | 12.78° C | 62% | 1018.9 hPa | - | - | - | - |
| 1777873941 | 11.67° C | 65% | 1019 hPa | - | - | - | - |
| 1777873040 | 11.11° C | 65% | 1018.9 hPa | - | - | - | - |
| 1777872140 | 11.11° C | 66% | 1019 hPa | - | - | - | - |
| 1777871240 | 10.56° C | 67% | 1019 hPa | - | - | - | - |
| 1777870340 | 10.56° C | 67% | 1019.2 hPa | - | - | - | - |
* Rain since midnight (hover to see other rain measurements)
** Current wind speed in m/s (hover to see current wind gust speed)